Ashtabula, OH

1:04 AM EDT on July 26, 2017 (GMT -0400)
Ashtabula County

Weather History for KHZY - October, 2013

Change the Weather History Date:

Saturday, October 19, 2013

  Actual Average (KGKJ) Record (KGKJ)
Temperature  
Mean Temperature 47 °F -  
Max Temperature 52 °F 57 °F 82 °F (1950)
Min Temperature 42 °F 37 °F 23 °F (1974)
Degree Days  
Heating Degree Days 18    
Moisture  
Dew Point 41 °F    
Average Humidity 81    
Maximum Humidity 89    
Minimum Humidity 63    
Precipitation  
Precipitation 0.64 in - - ()
Sea Level Pressure  
Sea Level Pressure 29.80 in    
Wind  
Wind Speed 9 mph (WSW)    
Max Wind Speed 16 mph    
Max Gust Speed 22 mph    
Visibility 7 miles    
Events Rain    
Averages and records for this station are not official NWS values.
T = Trace of Precipitation, MM = Missing Value Source: NWS Daily Summary

Daily Weather History Graph

Daily Weather History Graph

Search for Another Location

Airport or City:

Trip Planner

Search our weather history database for the weather conditions in past years. The results will help you decide how hot, cold, wet, or windy it might be!

Date:

Astronomy

Oct. 19, 2013 Rise Set
Actual Time 7:39 AM EDT 6:34 PM EDT
Civil Twilight 7:11 AM EDT 7:03 PM EDT
Nautical Twilight 6:39 AM EDT 7:35 PM EDT
Astronomical Twilight 6:07 AM EDT 8:07 PM EDT
Moon 7:00 PM EDT (10/19) 8:16 AM EDT (10/19)
Length of Visible Light 11h 51m
Length of Day
10h 55m
Waxing Gibbous, 99% of the Moon is Illuminated
Oct 19
Waxing Gibbous
Oct 26
Last Quarter
Nov 3
New
Nov 10
First Quarter
Nov 17
Full

Hourly Weather History & Observations

Time (EDT) Temp. Windchill Dew Point Humidity Pressure Visibility Wind Dir Wind Speed Gust Speed Precip Events Conditions
12:53 AM 52.0 °F - 39.9 °F 63% 29.92 in 10.0 mi SSW 10.4 mph - N/A   Overcast
1:53 AM 51.1 °F - 39.9 °F 66% 29.93 in 10.0 mi West 8.1 mph - N/A   Overcast
2:53 AM 50.0 °F - 39.9 °F 68% 29.91 in 10.0 mi SSW 8.1 mph - N/A   Mostly Cloudy
3:53 AM 48.9 °F - 39.9 °F 71% 29.89 in 10.0 mi South 9.2 mph - N/A   Clear
4:53 AM 48.9 °F - 41.0 °F 74% 29.88 in 10.0 mi SSW 6.9 mph - N/A   Mostly Cloudy
5:53 AM 48.9 °F - 39.9 °F 71% 29.88 in 10.0 mi SSW 6.9 mph - N/A   Overcast
6:53 AM 48.0 °F - 39.9 °F 74% 29.86 in 10.0 mi South 5.8 mph - N/A   Overcast
7:53 AM 48.0 °F - 41.0 °F 77% 29.84 in 10.0 mi South 4.6 mph - N/A   Mostly Cloudy
8:53 AM 48.0 °F - 41.0 °F 77% 29.84 in 10.0 mi South 9.2 mph - N/A   Partly Cloudy
9:53 AM 48.9 °F - 41.0 °F 74% 29.83 in 10.0 mi South 9.2 mph - N/A   Scattered Clouds
10:53 AM 50.0 °F - 42.1 °F 74% 29.82 in 10.0 mi South 4.6 mph - N/A   Overcast
11:53 AM 51.1 °F - 42.1 °F 71% 29.80 in 10.0 mi SW 8.1 mph - N/A   Overcast
12:53 PM 51.1 °F - 44.1 °F 77% 29.78 in 7.0 mi WSW 5.8 mph - 0.00 in Rain Light Rain
1:13 PM 50.0 °F - 44.6 °F 82% 29.77 in 6.0 mi SW 5.8 mph - 0.01 in Rain Light Rain
1:49 PM 50.0 °F - 44.6 °F 82% 29.75 in 5.0 mi WSW 4.6 mph - 0.02 in Rain Light Rain
1:53 PM 50.0 °F - 45.0 °F 83% 29.75 in 5.0 mi WSW 4.6 mph - 0.02 in Rain Light Rain
2:01 PM 50.0 °F - 44.6 °F 82% 29.74 in 4.0 mi West 4.6 mph - 0.01 in Rain Light Rain
2:22 PM 48.2 °F - 44.6 °F 87% 29.73 in 2.5 mi Variable 6.9 mph - 0.03 in Rain Light Rain
2:53 PM 46.0 °F 41.9 °F 42.1 °F 86% 29.73 in 3.0 mi WNW 8.1 mph - 0.07 in Rain Rain
3:18 PM 46.4 °F 42.9 °F 42.8 °F 87% 29.73 in 2.0 mi West 6.9 mph - 0.05 in Rain Rain
3:32 PM 46.4 °F 41.9 °F 42.8 °F 87% 29.73 in 2.0 mi West 9.2 mph - 0.09 in Rain Rain
3:50 PM 46.4 °F 41.5 °F 42.8 °F 87% 29.73 in 2.5 mi West 10.4 mph - 0.14 in Rain Rain
3:53 PM 46.0 °F 41.4 °F 43.0 °F 89% 29.74 in 3.0 mi West 9.2 mph - 0.15 in Rain Rain
4:05 PM 46.4 °F 40.7 °F 42.8 °F 87% 29.74 in 3.0 mi West 12.7 mph - 0.03 in Rain Rain
4:13 PM 46.4 °F 41.9 °F 42.8 °F 87% 29.73 in 4.0 mi West 9.2 mph - 0.04 in Rain Light Rain
4:31 PM 46.4 °F 40.4 °F 42.8 °F 87% 29.74 in 10.0 mi West 13.8 mph - 0.05 in Rain Light Rain
4:43 PM 46.4 °F 40.7 °F 42.8 °F 87% 29.74 in 5.0 mi West 12.7 mph - 0.06 in Rain Rain
4:53 PM 46.0 °F 39.6 °F 41.0 °F 83% 29.76 in 7.0 mi West 15.0 mph - 0.07 in Rain Light Rain
5:04 PM 44.6 °F 38.4 °F 41.0 °F 87% 29.75 in 10.0 mi West 12.7 mph 20.7 mph 0.00 in Rain Light Rain
5:38 PM 44.6 °F 38.8 °F 41.0 °F 87% 29.76 in 10.0 mi West 11.5 mph - 0.01 in Rain Light Rain
5:53 PM 45.0 °F 40.1 °F 41.0 °F 86% 29.78 in 9.0 mi West 9.2 mph - 0.02 in Rain Light Rain
6:01 PM 44.6 °F 38.1 °F 41.0 °F 87% 29.77 in 10.0 mi West 13.8 mph 18.4 mph 0.00 in Rain Light Rain
6:28 PM 44.6 °F 39.2 °F 39.2 °F 81% 29.78 in 10.0 mi WSW 10.4 mph - 0.00 in Rain Light Rain
6:53 PM 44.1 °F 38.6 °F 39.9 °F 85% 29.80 in 10.0 mi WSW 10.4 mph - 0.01 in Rain Light Rain
7:14 PM 44.6 °F 38.4 °F 39.2 °F 81% 29.80 in 7.0 mi WSW 12.7 mph 20.7 mph 0.01 in Rain Light Rain
7:38 PM 44.6 °F 38.8 °F 39.2 °F 81% 29.81 in 10.0 mi SW 11.5 mph - 0.04 in Rain Light Rain
7:53 PM 44.1 °F 37.1 °F 39.9 °F 85% 29.82 in 9.0 mi WSW 15.0 mph - 0.05 in Rain Light Rain
8:53 PM 43.0 °F 35.4 °F 39.0 °F 86% 29.86 in 5.0 mi WSW 16.1 mph 21.9 mph 0.09 in Rain Rain
9:53 PM 43.0 °F 37.2 °F 37.9 °F 82% 29.87 in 10.0 mi SW 10.4 mph - 0.04 in   Overcast
10:53 PM 42.1 °F 35.7 °F 37.9 °F 85% 29.90 in 4.0 mi SW 11.5 mph - 0.06 in Rain Rain
11:53 PM 43.0 °F - 39.0 °F 86% 29.90 in 10.0 mi Calm Calm - 0.06 in   Overcast